User: anonymous   Login
Location: Montauk Point State Park
(41.0718°N, 71.8593°W)
Time: 09:27:58
(UTC-04:00)
Language:

Cosmos 1844 - Orbit

View from above orbital plane
View from above orbital plane
View from above satellite
View from above satellite

Ground track
Ground track

The orbit data is extracted from the following two-line orbital elements,

1 17973U 87041A   16273.52536451 -.00000346  00000-0 -15584-3 0  9998
2 17973  70.8956 102.9208 0030220 161.2550 198.9692 14.14033895516298
Epoch (UTC): 29 September 2016 12:36:31
Eccentricity: 0.0030220
inclination: 70.8956°
perigee height: 824 km
apogee height: 867 km
right ascension of ascending node: 102.9208°
argument of perigee: 161.2550°
revolutions per day: 14.14033895
mean anomaly at epoch: 198.9692°
orbit number at epoch: 51629

The dashed part of the orbit path shows where the satellite is in the earth's shadow,  

DLR